STARLINK-3564, 52302

Orbit data source: Space-Track

STARLINK-3564, 52302 is a payload satellite owned by SpaceX/Seattle (US) in LEO that was launched on Thu, 21 Apr 2022 UTC via an FALCON 9 launch vehicle from the Air Force Eastern Test Range (AFETR). Payload-class satellites include a variety of spacecraft equipped with specific instruments for various scientific and technological missions. These include communications satellites like Starlink; space stations such as the ISS; scientific satellites like the Hubble; Earth observation satellites from companies like Planet Labs, Umbra, and HawkEye 360; GPS; miniature CubeSats for education and research; and military/defense satellites.

Loading next visibility...
Identifier
52302, 2022-041AT
Orbit
LEO
Country
Flag of USUS
Related business
Manufacturer
SpaceX/Seattle
Mission
Operational Commercial Communications
Bus & Motor
STARLINK, Unknown motor
Mass
297 kg wet, ~275 kg dry
Launch date (UTC)
2022-04-21 (4 years ago)
Launch vehicle
FALCON 9
Launch site
Air Force Eastern Test Range (AFETR)
Object type
Payload
Rocket body
Debris
Shape & HBR
Box + 1 Pan, 10.1 m
Radar Cross Section
11.087 m², Large (>1 m²)

Expand to show TLE details & history
Last TLE update: 6 hours ago

TLE from 6 hours ago
0 STARLINK-3564
1 52302U 22041AT  26193.11059422  .00007514  00000-0  25391-3 0  9996
2 52302  53.1593 247.5091 0001245 112.5240 247.5894 15.31668309233464
Epoch: 2026-07-12T02:39Z
TLE epoch observation values (Epoch: 2026-07-12T02:39:15.340Z)
Latitude
0.00003°
Longitude
-82.31895°
Altitude
472.06 km
Speed
7.631 km/s
True Right ascension
16h 30m 02s
True Declination
0° 00' 00"
Sunlit
Object was in full shadow at epoch
Visualization orbit readout
Latitude
Unknown
Longitude
Unknown
Altitude
Unknown
Speed
Unknown
Apparent Right ascension
Unknown
Apparent Declination
Unknown
Sunlit
N/A
Visualization observer readout
Local Sidereal Time
20:59:15
Azimuth
Unknown
Elevation
Unknown
Doppler factor
Unknown
Orbital elements
Apogee altitude
471.944 km
Perigee altitude
470.238 km
Semi-major axis
6,849.228 km
Eccentricity
0.00012
Inclination
53.1593°
RAAN
247.5091°
Arg. of periapsis
112.524°
True anomaly
247.57621°
Mean anomaly
247.5894°
Eccentric anomaly
247.58281°
Mean motion
3.82896 °/min
Orbital period
94.02 mins
BSTAR
0.00025391
Loading maneuver chart data...
Computing Atmospheric mass density...
Loading historical data...
Loading historical data...
Loading historical data...
Loading historical data...
Loading historical data...
Loading historical data...
Loading historical data...

Documentation

Showing up to 5 results
|